Weather History for Richmond, VA

Change the Weather History Date:

Wednesday, July 10, 2013

  Actual Average Record
Temperature  
Mean Temperature 82 °F 80 °F  
Max Temperature 91 °F 90 °F 104 °F (1936)
Min Temperature 72 °F 69 °F 55 °F (1961)
Degree Days  
Heating Degree Days 0 0  
Month to date heating degree days 0 0  
Since 1 June heating degree days 0 7  
Since 1 July heating degree days 0 0  
Cooling Degree Days 17 15  
Month to date cooling degree days 165 141  
Year to date cooling degree days 736 617  
Since 1 June cooling degree days 523 456  
Growing Degree Days 32 (Base 50)    
Moisture  
Dew Point 73 °F    
Average Humidity 78    
Maximum Humidity 93    
Minimum Humidity 63    
Precipitation  
Precipitation 1.84 in 0.15 in 1.84 in (2013)
Month to date precipitation 2.81 1.33  
Year to date precipitation 28.19 22.15  
Snow  
Snow 0.00 in 0.00 in 0.00 in (2002)
Month to date snowfall 0.0 0.0  
Since 1 July snowfall 0.0 0.0  
Snow Depth 0.00 in    
Sea Level Pressure  
Sea Level Pressure 29.99 in    
Wind  
Wind Speed 9 mph (SW)    
Max Wind Speed 29 mph    
Max Gust Speed 36 mph    
Visibility 8 miles    
Events Rain , Thunderstorm    
T = Trace of Precipitation, MM = Missing Value Source: NWS Daily Summary

Daily Weather History Graph

Daily Weather History Graph

Search for Another Location

Airport:

Trip Planner

Search our weather history database for the weather conditions in past years. The results will help you decide how hot, cold, wet, or windy it might be!

Date:

Astronomy

Jul. 10, 2013 Rise Set
Actual Time 5:56 AM EDT 8:32 PM EDT
Civil Twilight 5:26 AM EDT 9:02 PM EDT
Nautical Twilight 4:48 AM EDT 9:40 PM EDT
Astronomical Twilight 4:05 AM EDT 10:23 PM EDT
Moon 8:12 AM EDT (7/10) 9:45 PM EDT (7/10)
Length of Visible Light 15h 36m
Length of Day
14h 35m
Waxing Crescent, 5% of the Moon is Illuminated
Jul 10
Waxing Crescent
Jul 15
First Quarter
Jul 22
Full
Jul 29
Last Quarter
Aug 6
New

Hourly Weather History & Observations

Time (EDT) Temp. Heat Index Dew Point Humidity Pressure Visibility Wind Dir Wind Speed Gust Speed Precip Events Conditions
12:54 AM 79.0 °F - 72.0 °F 79% 30.07 in 10.0 mi SW 9.2 mph - N/A   Overcast
1:54 AM 78.1 °F - 72.0 °F 81% 30.05 in 10.0 mi SSW 11.5 mph - N/A   Overcast
2:54 AM 75.9 °F - 72.0 °F 87% 30.05 in 10.0 mi SSW 10.4 mph - N/A   Mostly Cloudy
3:54 AM 75.9 °F - 72.0 °F 87% 30.04 in 10.0 mi SSW 9.2 mph - N/A   Clear
4:54 AM 75.0 °F - 72.0 °F 90% 30.04 in 10.0 mi South 8.1 mph - N/A   Partly Cloudy
5:54 AM 75.0 °F - 72.0 °F 90% 30.04 in 10.0 mi SSW 8.1 mph - N/A   Mostly Cloudy
6:54 AM 75.9 °F - 72.0 °F 87% 30.04 in 10.0 mi SSW 6.9 mph - N/A   Overcast
7:48 AM 77.0 °F - 71.6 °F 83% 30.03 in 10.0 mi SSW 9.2 mph - N/A   Mostly Cloudy
7:54 AM 77.0 °F - 72.0 °F 84% 30.03 in 10.0 mi SSW 10.4 mph - N/A   Mostly Cloudy
8:54 AM 80.1 °F 84.2 °F 73.0 °F 79% 30.03 in 10.0 mi SW 8.1 mph - N/A   Mostly Cloudy
9:54 AM 82.0 °F 87.4 °F 73.0 °F 74% 30.03 in 10.0 mi SW 10.4 mph - N/A   Mostly Cloudy
10:54 AM 84.9 °F 92.1 °F 73.9 °F 69% 30.03 in 10.0 mi SSW 11.5 mph - N/A   Mostly Cloudy
11:54 AM 87.1 °F 95.4 °F 73.9 °F 65% 30.03 in 10.0 mi SW 9.2 mph - N/A   Mostly Cloudy
12:54 PM 88.0 °F 97.5 °F 75.0 °F 65% 30.02 in 10.0 mi SSW 6.9 mph 16.1 mph N/A   Mostly Cloudy
1:54 PM 89.1 °F 99.1 °F 75.0 °F 63% 30.00 in 10.0 mi SSW 10.4 mph - N/A   Mostly Cloudy
2:54 PM 88.0 °F 97.5 °F 75.0 °F 65% 29.96 in 10.0 mi SSW 12.7 mph - N/A   Mostly Cloudy
3:24 PM 87.8 °F 95.6 °F 73.4 °F 62% 29.95 in 10.0 mi SSW 10.4 mph - N/A Thunderstorm Thunderstorm
3:45 PM 78.8 °F - 69.8 °F 74% 29.96 in 3.0 mi SW 9.2 mph 21.9 mph 0.24 in Rain , Thunderstorm Light Thunderstorms and Rain
3:54 PM 80.1 °F 82.9 °F 69.1 °F 69% 29.96 in 1.5 mi Variable 5.8 mph 20.7 mph 0.49 in Rain , Thunderstorm Light Thunderstorms and Rain
4:28 PM 75.2 °F - 71.6 °F 89% 29.96 in 0.8 mi SSW 13.8 mph 28.8 mph 0.43 in Rain , Thunderstorm Heavy Thunderstorms and Rain
4:42 PM 77.0 °F - 73.4 °F 89% 29.95 in 4.0 mi SSE 11.5 mph 17.3 mph 0.69 in Rain , Thunderstorm Thunderstorms and Rain
4:54 PM 78.1 °F - 73.9 °F 87% 29.95 in 8.0 mi South 12.7 mph 20.7 mph 0.70 in Rain , Thunderstorm Light Thunderstorms and Rain
5:50 PM 78.8 °F - 75.2 °F 89% 29.93 in 10.0 mi SE 5.8 mph - 0.03 in   Mostly Cloudy
5:54 PM 79.0 °F - 75.0 °F 88% 29.95 in 10.0 mi Calm Calm - 0.03 in   Mostly Cloudy
6:46 PM 80.6 °F 86.2 °F 75.2 °F 84% 29.95 in 3.0 mi NW 16.1 mph - 0.01 in Rain Rain
6:54 PM 78.1 °F - 73.0 °F 84% 29.97 in 3.0 mi WNW 16.1 mph 25.3 mph 0.04 in Rain Rain
7:11 PM 75.2 °F - 71.6 °F 89% 29.96 in 10.0 mi NW 10.4 mph - 0.02 in Rain , Thunderstorm Light Thunderstorms and Rain
7:44 PM 75.2 °F - 71.6 °F 89% 29.96 in 10.0 mi Calm Calm - 0.03 in Rain Light Rain
7:52 PM 75.2 °F - 71.6 °F 89% 29.96 in 9.0 mi Calm Calm - 0.03 in Rain , Thunderstorm Light Thunderstorms and Rain
7:54 PM 75.0 °F - 72.0 °F 90% 29.97 in 8.0 mi Calm Calm - 0.03 in Rain , Thunderstorm Light Thunderstorms and Rain
8:27 PM 75.2 °F - 71.6 °F 89% 29.95 in 10.0 mi Calm Calm - 0.05 in Rain Light Rain
8:54 PM 75.0 °F - 72.0 °F 90% 29.95 in 10.0 mi Calm Calm - 0.06 in Rain Light Rain
9:54 PM 75.0 °F - 73.0 °F 94% 29.96 in 10.0 mi South 4.6 mph - 0.00 in   Overcast
10:26 PM 75.2 °F - 73.4 °F 94% 29.98 in 10.0 mi WSW 15.0 mph - N/A Thunderstorm Thunderstorm
10:43 PM 75.2 °F - 71.6 °F 89% 29.97 in 2.5 mi West 12.7 mph - 0.01 in Rain , Thunderstorm Heavy Thunderstorms and Rain
10:54 PM 73.9 °F - 71.1 °F 91% 29.98 in 4.0 mi WSW 11.5 mph - 0.13 in Rain , Thunderstorm Thunderstorms and Rain
11:54 PM 73.0 °F - 71.1 °F 93% 29.98 in 7.0 mi SSW 9.2 mph - 0.13 in Rain , Thunderstorm Light Thunderstorms and Rain